Weather History for Troy, AL

Change the Weather History Date:

Saturday, November 23, 2013

  Actual Average Record
Temperature  
Mean Temperature 56 °F 54 °F  
Max Temperature 65 °F 66 °F 78 °F (2004)
Min Temperature 47 °F 41 °F 30 °F (2002)
Degree Days  
Heating Degree Days 9 12  
Month to date heating degree days 163 204  
Since 1 July heating degree days 208 302  
Growing Degree Days 6 (Base 50)    
Moisture  
Dew Point 53 °F    
Average Humidity 77    
Maximum Humidity 93    
Minimum Humidity 61    
Precipitation  
Precipitation T in 0.16 in 0.76 in (2001)
Month to date precipitation 0.74 3.32  
Year to date precipitation 49.32 48.46  
Snow  
Snow 0.00 in - - ()
Month to date snowfall 0.0  
Since 1 July snowfall 0.0  
Since 1 September snowfall 0.0  
Snow Depth 0.00 in    
Sea Level Pressure  
Sea Level Pressure 30.19 in    
Wind  
Wind Speed 8 mph (NNW)    
Max Wind Speed 17 mph    
Max Gust Speed 22 mph    
Visibility 6 miles    
Events Fog , Rain    
T = Trace of Precipitation, MM = Missing Value Source: NWS Daily Summary

Daily Weather History Graph

Daily Weather History Graph

Search for Another Location

Airport:

Trip Planner

Search our weather history database for the weather conditions in past years. The results will help you decide how hot, cold, wet, or windy it might be!

Date:

Astronomy

Nov. 23, 2013 Rise Set
Actual Time 6:19 AM CST 4:41 PM CST
Civil Twilight 5:53 AM CST 5:07 PM CST
Nautical Twilight 5:23 AM CST 5:37 PM CST
Astronomical Twilight 4:54 AM CST 6:06 PM CST
Moon 10:01 PM CST (11/23) 10:43 AM CST (11/23)
Length of Visible Light 11h 13m
Length of Day
10h 21m
Waning Gibbous, 69% of the Moon is Illuminated
Nov 23
Waning Gibbous
Nov 25
Last Quarter
Dec 2
New
Dec 9
First Quarter
Dec 17
Full

Hourly Weather History & Observations

Time (CST) Temp. Dew Point Humidity Pressure Visibility Wind Dir Wind Speed Gust Speed Precip Events Conditions
12:06 AM 62.6 °F 59.0 °F 88% 30.19 in 7.0 mi Calm Calm - N/A   Overcast
12:53 AM 63.0 °F 60.1 °F 90% 30.17 in 7.0 mi Calm Calm - N/A   Overcast
1:07 AM 62.6 °F 59.0 °F 88% 30.18 in 8.0 mi Calm Calm - N/A   Overcast
1:53 AM 60.1 °F 57.9 °F 93% 30.17 in 4.0 mi Calm Calm - N/A   Clear
2:13 AM 59.0 °F 55.4 °F 88% 30.18 in 2.5 mi Calm Calm - N/A   Clear
2:38 AM 60.8 °F 57.2 °F 88% 30.17 in 1.0 mi Calm Calm - N/A   Mist
2:40 AM 59.0 °F 55.4 °F 88% 30.17 in 0.5 mi Calm Calm - N/A Fog Fog
2:53 AM 57.9 °F 55.9 °F 93% 30.17 in 0.5 mi Calm Calm - N/A Fog Fog
3:03 AM 57.2 °F 55.4 °F 94% 30.17 in 0.2 mi Calm Calm - N/A Fog Fog
3:11 AM 57.2 °F 55.4 °F 94% 30.18 in 0.8 mi Calm Calm - N/A   Mostly Cloudy
3:17 AM 57.2 °F 55.4 °F 94% 30.18 in 1.0 mi Calm Calm - N/A   Overcast
3:21 AM 57.2 °F 55.4 °F 94% 30.17 in 1.8 mi Calm Calm - N/A   Overcast
3:24 AM 57.2 °F 55.4 °F 94% 30.17 in 3.0 mi Calm Calm - N/A   Overcast
3:53 AM 59.0 °F 55.9 °F 90% 30.16 in 6.0 mi Calm Calm - N/A   Overcast
4:23 AM 59.0 °F 57.2 °F 94% 30.16 in 5.0 mi Calm Calm - N/A   Overcast
4:53 AM 59.0 °F 57.0 °F 93% 30.16 in 5.0 mi Calm Calm - N/A   Overcast
5:53 AM 62.1 °F 59.0 °F 90% 30.16 in 6.0 mi North 4.6 mph - N/A   Overcast
6:53 AM 63.0 °F 60.1 °F 90% 30.18 in 3.0 mi NNW 4.6 mph - N/A   Overcast
7:04 AM 62.6 °F 60.8 °F 94% 30.19 in 2.5 mi North 3.5 mph - N/A   Overcast
7:49 AM 62.6 °F 60.8 °F 94% 30.20 in 4.0 mi NNW 4.6 mph - N/A   Overcast
7:53 AM 63.0 °F 60.1 °F 90% 30.19 in 4.0 mi North 4.6 mph - N/A   Overcast
8:21 AM 64.4 °F 60.8 °F 88% 30.21 in 5.0 mi NNW 4.6 mph - N/A   Overcast
8:41 AM 64.4 °F 60.8 °F 88% 30.21 in 7.0 mi NW 5.8 mph - N/A   Overcast
8:53 AM 64.0 °F 59.0 °F 84% 30.21 in 8.0 mi North 5.8 mph - N/A   Overcast
9:53 AM 64.0 °F 59.0 °F 84% 30.20 in 9.0 mi North 8.1 mph - N/A   Overcast
10:17 AM 62.6 °F 57.2 °F 82% 30.21 in 6.0 mi NW 9.2 mph - N/A   Haze
10:53 AM 64.0 °F 57.0 °F 78% 30.20 in 10.0 mi NNW 11.5 mph 17.3 mph N/A   Overcast
11:53 AM 64.0 °F 55.0 °F 73% 30.19 in 10.0 mi NW 9.2 mph - N/A   Overcast
12:53 PM 62.1 °F 54.0 °F 75% 30.17 in 10.0 mi NNW 11.5 mph 18.4 mph N/A   Overcast
1:53 PM 62.1 °F 52.0 °F 70% 30.17 in 10.0 mi NNW 10.4 mph - 0.00 in   Overcast
2:03 PM 62.6 °F 51.8 °F 68% 30.17 in 10.0 mi NNW 8.1 mph - N/A   Overcast
2:53 PM 60.1 °F 51.1 °F 72% 30.18 in 10.0 mi NNW 13.8 mph - 0.00 in   Overcast
3:53 PM 60.1 °F 48.9 °F 67% 30.19 in 10.0 mi NW 12.7 mph - N/A   Overcast
4:25 PM 59.0 °F 48.2 °F 67% 30.20 in 10.0 mi NNW 12.7 mph - 0.00 in Rain Light Rain
4:53 PM 57.9 °F 48.0 °F 70% 30.21 in 10.0 mi NNW 9.2 mph - 0.00 in   Overcast
5:53 PM 57.0 °F 44.1 °F 62% 30.21 in 10.0 mi North 10.4 mph - N/A   Overcast
6:53 PM 55.9 °F 43.0 °F 62% 30.23 in 10.0 mi North 13.8 mph - N/A   Overcast
7:53 PM 53.1 °F 41.0 °F 64% 30.25 in 10.0 mi North 15.0 mph - N/A   Mostly Cloudy
8:53 PM 51.1 °F 39.0 °F 63% 30.26 in 10.0 mi North 11.5 mph - N/A   Clear
9:53 PM 50.0 °F 37.9 °F 63% 30.27 in 10.0 mi North 10.4 mph - N/A   Clear
10:53 PM 48.0 °F 36.0 °F 63% 30.28 in 10.0 mi North 8.1 mph - N/A   Clear
11:53 PM 46.9 °F 35.1 °F 63% 30.27 in 10.0 mi North 5.8 mph - N/A   Clear